{"data":{"norad_id":52984,"intl_designator":"2022-075A","name":"COSMOS 2557 (706K)","alt_names":[],"object_type":"PAYLOAD","status":"ACTIVE","operator":null,"country":"CIS","launch_date":"2022-07-07","launch_site_code":"PLMSC","launch_vehicle":null,"mission":null,"orbit_class":"UNKNOWN","rcs_meters":null,"size_class":null,"mass_kg":null,"dimensions":null,"purposes":["earth_obs","nav"],"wikipedia_slug":null,"has_3d_model":false,"image_url":null,"decayed_at":null,"tle_current":{"epoch":"2026-05-22T07:11:30.302592Z","epoch_age_seconds":304545,"freshness":"STALE","line1":"1 52984U 22075A   26142.29965628 -.00000040  00000+0  00000+0 0  9999","line2":"2 52984  64.3148 315.3974 0010092 278.3503  81.5318  2.13101899 30168","mean_motion":2.13101899,"eccentricity":0.0010092,"inclination_deg":64.3148,"raan_deg":315.3974,"arg_perigee_deg":278.3503,"mean_anomaly_deg":81.5318,"bstar":0,"rev_number":3016,"period_min":675.73306796295,"perigee_km":19104.152780858,"apogee_km":19155.63819363,"semimajor_km":25508.032487244,"source":"CELESTRAK","updated_at":"2026-05-25T13:38:23.896521Z"}}}